Wind_Speed
34 36 38 40 43 45 47 49 50 52 54 56 58 61 63 65 66 67 68 69 71 71 72 73 74 77 76 78 80 79 79 78 76 77 77 78 79 80 79 76 74 72 72
39 41 42 44 47 49 50 53 55 57 59 61 64 66 67 68 71 72 73 74 76 77 78 79 81 81 83 85 85 85 84 80 78 77 78 80 82 83 81 78 76 74 70
45 46 48 50 52 54 56 58 59 62 65 67 68 71 72 74 75 77 78 80 81 82 84 85 87 89 89 89 87 86 85 82 81 81 81 78 79 79 78 77 75 75 72
48 50 51 54 57 58 60 63 66 68 70 73 74 75 77 81 83 84 85 87 88 88 89 90 91 90 90 88 88 88 87 87 85 85 82 80 81 79 78 78 77 77 78
53 55 57 59 61 63 66 69 71 74 77 78 79 81 85 87 89 89 90 90 90 90 89 90 90 90 90 90 90 89 89 88 85 86 85 83 81 80 81 80 78 78 79
61 63 66 69 69 71 74 74 76 78 81 80 82 86 88 90 90 90 90 91 91 91 92 92 92 93 91 89 89 90 93 90 87 87 84 84 82 81 80 79 77 76 76
65 66 69 72 74 77 78 79 82 82 81 82 91 93 93 94 93 94 94 94 94 94 94 92 90 91 90 92 93 95 95 90 86 85 84 84 84 84 86 83 82 82 80
70 72 74 76 78 77 81 79 85 86 85 92 93 92 95 95 95 96 95 94 92 90 91 91 93 95 95 94 95 96 95 91 89 89 90 91 90 89 89 85 83 83 82
76 77 79 82 83 84 80 87 88 85 86 93 93 93 92 96 97 95 92 92 94 95 95 95 95 96 94 92 93 95 97 96 95 96 94 93 93 92 90 88 88 87 87
75 77 78 81 83 84 85 84 83 87 96 91 92 92 96 97 95 94 94 94 92 91 92 95 97 100 98 97 96 97 98 98 96 96 95 93 89 87 87 86 85 86 85
75 83 83 80 81 85 88 88 88 87 86 88 89 95 96 93 91 93 94 96 99 99 99 99 97 98 98 100 99 97 96 93 90 87 86 84 82 81 81 81 78 78 78
86 82 82 79 80 82 83 87 91 84 86 86 88 89 91 91 93 95 98 100 102 99 97 98 99 100 99 96 94 93 91 90 88 87 87 88 88 88 87 88 88 87 85
81 79 78 77 76 75 77 78 83 84 84 86 89 92 95 98 99 99 100 100 97 96 96 95 95 94 92 93 93 93 94 95 92 89 87 87 85 85 83 81 80 79 78
72 72 77 73 72 74 77 78 79 86 91 93 97 100 101 102 100 99 96 97 96 93 93 94 94 94 94 93 92 91 91 91 89 87 86 86 85 86 85 85 84 84 82
65 63 67 73 73 75 78 82 87 90 93 95 98 99 100 99 97 97 94 95 96 96 95 95 94 94 93 92 89 88 88 87 88 89 90 90 90 90 89 88 86 85 84
63 66 69 72 77 80 84 87 91 94 95 94 95 95 95 94 95 96 96 96 96 95 95 94 92 91 91 92 94 94 94 94 93 94 93 92 91 90 88 86 84 83 81
66 70 74 79 83 85 87 93 95 94 92 92 91 92 94 95 96 95 95 96 95 93 93 94 96 97 98 98 99 98 97 96 94 94 93 92 91 91 90 87 83 79 76
71 76 78 82 86 89 92 92 92 90 89 90 92 94 94 94 94 93 91 92 95 97 99 101 101 100 98 97 100 99 98 95 95 94 93 92 89 85 80 80 74 72 68
75 78 80 86 90 91 91 87 86 87 89 92 92 94 94 94 95 95 97 99 101 102 101 101 102 101 102 103 102 100 96 94 93 90 86 82 79 77 74 72 70 66 63
80 82 88 90 90 86 83 85 87 90 91 90 89 90 92 95 99 102 103 103 105 103 103 105 105 104 100 97 96 95 91 87 85 81 78 76 71 70 71 68 68 64 61
83 88 89 82 81 82 83 86 88 88 87 90 91 94 95 98 101 104 105 105 103 103 106 104 100 97 94 89 87 87 84 79 77 74 71 69 67 66 65 66 64 64 62
85 82 77 78 80 81 82 84 86 89 92 96 99 101 100 102 104 105 107 107 107 106 102 98 94 91 89 84 78 77 79 74 71 69 67 66 63 63 62 60 62 63 62
74 75 77 78 79 79 82 86 90 94 98 102 104 106 107 108 110 111 111 111 108 104 100 97 93 88 85 82 77 73 72 74 73 66 63 62 58 58 58 57 58 60 59
72 74 74 74 77 81 85 89 94 99 103 106 108 110 113 113 115 114 113 110 105 101 98 93 89 86 81 78 76 72 70 67 68 73 61 57 56 55 55 54 54 55 55
70 68 71 77 82 84 89 94 99 103 106 110 112 114 117 118 118 114 110 106 102 98 93 89 86 81 77 73 70 68 66 61 57 59 66 57 51 48 50 50 51 49 50
64 68 75 79 82 88 92 97 101 106 109 112 115 118 120 120 116 110 105 102 98 94 91 86 80 76 72 69 66 63 61 59 54 49 52 57 53 45 43 46 48 47 47
Wind_Direction
284 287 289 291 291 291 292 293 294 293 293 294 294 294 295 295 295 295 296 296 295 295 294 293 293 293 293 293 292 291 289 288 287 287 286 286 285 284 284 281 278 276 274
281 282 284 284 284 285 288 289 290 292 293 292 292 292 294 297 298 297 297 297 297 296 295 294 294 293 293 293 292 293 292 291 291 289 286 285 283 283 283 282 281 278 274
279 281 283 285 287 288 289 290 291 291 292 292 294 296 297 297 297 297 297 296 296 295 294 294 294 294 293 294 293 292 292 290 289 287 286 284 282 281 280 280 279 277 274
282 282 284 285 285 287 288 290 291 292 294 296 297 298 299 299 299 298 298 297 297 296 296 295 295 294 293 292 292 291 289 288 288 287 286 285 283 282 280 279 277 277 275
282 283 284 284 285 287 288 290 294 298 299 298 299 300 300 299 299 299 298 297 296 296 294 293 293 292 292 292 290 290 289 289 289 287 286 285 283 282 280 278 277 276 274
286 287 287 287 288 291 293 297 299 299 300 299 299 300 299 298 298 298 297 296 295 294 292 292 293 293 293 291 290 290 289 290 289 287 286 284 282 281 279 278 277 274 272
288 290 291 293 295 297 298 298 299 299 298 298 299 299 299 300 299 297 297 296 296 295 295 294 292 292 291 290 289 290 290 290 288 286 284 283 281 280 279 278 276 273 272
286 289 292 295 297 297 297 298 297 296 295 297 298 297 297 298 297 296 296 297 296 295 294 294 294 293 292 292 291 291 289 289 287 286 285 284 282 280 278 276 273 271 268
289 292 293 295 296 297 293 295 296 294 295 296 295 296 295 296 295 295 296 297 296 295 295 295 294 293 292 290 289 289 288 287 285 283 283 284 283 282 280 278 276 273 271
287 290 294 294 294 295 294 292 292 292 294 294 294 292 294 294 293 294 297 298 297 296 296 294 293 292 291 289 288 288 287 286 286 284 283 281 279 276 274 272 270 269 267
290 293 296 296 296 294 294 296 294 294 294 293 292 291 292 294 297 298 298 297 296 295 295 294 293 292 291 291 290 289 287 287 284 282 280 278 276 274 272 271 268 266 264
295 297 298 295 293 292 293 290 291 294 294 296 297 297 297 297 297 296 296 296 295 295 294 294 293 293 293 293 292 291 290 287 285 285 284 281 278 276 272 269 265 262 260
296 297 297 296 296 296 296 295 297 300 299 298 297 298 299 298 298 298 297 297 296 296 296 295 294 293 292 291 290 290 289 288 285 282 280 278 275 274 272 270 268 264 261
295 296 297 300 302 304 302 303 304 304 304 303 302 301 301 299 299 299 299 298 299 299 297 296 294 293 291 290 290 287 285 283 282 281 279 277 275 272 271 270 268 265 262
294 297 299 303 303 301 301 303 302 302 301 301 301 302 301 302 302 302 302 302 301 299 298 296 295 294 294 293 291 290 289 287 285 283 281 279 277 276 275 273 270 267 262
298 299 299 299 299 300 302 301 300 301 302 301 302 303 303 304 304 304 302 302 301 299 299 298 297 296 296 295 294 293 291 289 287 286 284 283 281 279 278 275 272 269 265
301 300 300 301 301 300 300 302 302 302 304 305 306 306 306 305 305 305 303 303 302 302 301 301 300 300 298 297 294 292 291 289 288 286 285 283 281 280 279 276 272 269 264
296 298 301 301 301 301 303 304 306 307 308 309 308 308 308 307 306 305 305 305 305 304 303 302 300 299 297 296 295 294 292 290 287 287 286 284 281 279 276 274 271 266 260
299 302 302 303 305 307 307 308 309 309 309 310 311 311 311 311 310 310 309 308 306 306 305 303 302 300 299 297 295 294 292 290 288 287 285 283 281 279 276 273 269 264 259
303 304 306 307 308 308 309 309 309 311 312 313 313 313 312 312 312 311 311 310 309 307 306 305 302 300 298 297 296 294 292 290 288 286 283 281 278 276 274 271 268 263 257
305 307 308 308 308 309 311 311 313 315 316 315 314 313 314 313 312 312 311 311 309 307 306 304 302 300 299 296 295 293 290 288 286 284 282 279 276 273 270 268 265 263 256
305 306 309 309 311 311 313 315 316 317 317 317 317 315 315 314 313 313 312 312 310 309 307 306 304 303 301 298 296 294 292 288 286 284 281 279 276 273 269 265 262 259 255
307 309 310 312 313 314 315 317 318 318 318 317 316 316 316 316 316 315 315 314 313 311 309 308 307 305 304 302 298 295 292 292 291 286 284 280 276 272 268 263 258 255 252
310 311 313 314 314 313 315 318 319 319 318 317 317 317 317 317 317 316 315 314 313 311 310 309 308 306 303 300 298 295 292 289 289 290 284 279 275 272 269 264 259 253 249
311 314 314 314 313 314 317 318 319 318 318 317 317 317 318 319 318 317 316 314 312 311 310 309 308 306 303 300 298 296 293 290 287 286 286 282 275 270 267 263 258 250 244
313 313 314 316 317 317 318 318 319 318 317 317 317 318 320 319 317 316 315 314 314 313 311 310 309 306 304 302 300 298 295 293 289 283 282 283 280 271 265 260 255 249 242
Height
10890 10887 10884 10881 10878 10875 10872 10869 10866 10862 10859 10855 10852 10848 10845 10841 10837 10833 10830 10826 10822 10818 10814 10809 10805 10801 10797 10793 10789 10787 10785 10783 10783 10779 10774 10771 10767 10764 10762 10762 10763 10762 10761
10882 10880 10877 10874 10870 10867 10865 10862 10858 10855 10852 10848 10844 10840 10836 10832 10827 10822 10818 10813 10808 10803 10799 10794 10789 10785 10781 10776 10772 10768 10766 10764 10764 10761 10756 10754 10749 10745 10744 10742 10741 10740 10743
10877 10874 10871 10868 10865 10862 10859 10855 10851 10847 10843 10838 10834 10828 10823 10818 10814 10809 10804 10799 10794 10789 10783 10778 10773 10768 10763 10758 10753 10748 10747 10746 10745 10741 10738 10736 10730 10727 10726 10726 10724 10721 10722
10871 10867 10864 10861 10858 10854 10850 10846 10842 10837 10832 10826 10819 10814 10809 10804 10799 10794 10788 10783 10778 10772 10767 10761 10756 10750 10745 10740 10735 10729 10726 10725 10725 10718 10717 10717 10711 10709 10706 10705 10705 10704 10700
10863 10859 10855 10851 10848 10844 10839 10835 10830 10824 10818 10812 10806 10800 10794 10789 10783 10778 10772 10767 10761 10756 10750 10743 10738 10732 10727 10721 10715 10709 10705 10705 10706 10698 10696 10693 10691 10690 10687 10685 10686 10684 10680
10855 10850 10845 10841 10837 10833 10828 10823 10818 10811 10805 10799 10792 10785 10778 10772 10766 10761 10755 10749 10743 10737 10730 10724 10718 10712 10706 10701 10695 10689 10684 10686 10686 10679 10675 10671 10670 10668 10667 10665 10668 10663 10661
10843 10836 10832 10830 10827 10823 10817 10811 10804 10798 10792 10785 10777 10769 10762 10755 10750 10743 10736 10729 10723 10716 10709 10703 10697 10691 10686 10680 10676 10669 10662 10662 10663 10657 10653 10649 10648 10648 10645 10647 10646 10643 10642
10833 10828 10823 10820 10817 10812 10806 10797 10790 10785 10778 10771 10763 10754 10746 10739 10732 10724 10718 10711 10703 10696 10689 10684 10677 10670 10664 10658 10653 10646 10638 10639 10638 10634 10629 10626 10624 10624 10622 10625 10624 10621 10622
10824 10818 10812 10809 10805 10800 10793 10785 10777 10772 10764 10756 10748 10739 10730 10722 10715 10708 10700 10693 10684 10675 10670 10664 10656 10647 10643 10637 10630 10626 10618 10616 10614 10610 10606 10601 10598 10597 10595 10597 10597 10597 10598
10815 10809 10805 10800 10794 10787 10778 10769 10763 10756 10751 10741 10734 10723 10715 10707 10697 10688 10683 10674 10664 10656 10650 10642 10636 10626 10622 10615 10609 10601 10595 10591 10588 10582 10578 10576 10574 10573 10573 10574 10575 10573 10575
10808 10800 10795 10787 10781 10772 10763 10757 10747 10739 10733 10726 10717 10707 10697 10690 10681 10673 10665 10654 10644 10637 10630 10619 10611 10601 10594 10588 10581 10575 10568 10565 10564 10560 10555 10551 10550 10549 10548 10547 10550 10549 10550
10792 10785 10780 10773 10766 10755 10748 10740 10731 10723 10716 10709 10698 10689 10679 10671 10663 10656 10646 10633 10623 10617 10608 10596 10586 10578 10568 10560 10552 10543 10539 10535 10534 10531 10526 10522 10520 10520 10520 10520 10522 10523 10526
10780 10772 10763 10757 10751 10742 10732 10724 10716 10707 10699 10691 10682 10671 10660 10650 10643 10635 10624 10611 10601 10594 10586 10574 10563 10554 10548 10538 10530 10523 10512 10504 10505 10505 10499 10494 10492 10491 10490 10491 10492 10495 10499
10768 10755 10745 10739 10731 10723 10713 10708 10700 10690 10679 10667 10656 10646 10636 10625 10619 10611 10599 10588 10578 10570 10560 10549 10538 10530 10522 10514 10507 10498 10490 10483 10478 10475 10473 10468 10465 10463 10463 10463 10466 10467 10472
10757 10748 10738 10729 10725 10716 10706 10699 10690 10680 10669 10657 10642 10630 10615 10603 10596 10587 10574 10563 10552 10543 10534 10523 10513 10503 10494 10485 10478 10471 10462 10457 10452 10446 10441 10437 10435 10432 10432 10432 10435 10437 10440
10748 10739 10732 10724 10715 10706 10696 10686 10676 10665 10654 10641 10627 10614 10600 10586 10574 10565 10553 10542 10528 10518 10508 10498 10486 10477 10468 10459 10447 10440 10434 10426 10420 10414 10409 10405 10402 10399 10399 10399 10400 10404 10410
10738 10729 10721 10712 10701 10692 10681 10668 10656 10646 10634 10620 10606 10592 10580 10566 10554 10541 10529 10517 10505 10493 10482 10471 10459 10450 10439 10430 10418 10409 10402 10396 10389 10381 10378 10373 10371 10369 10366 10365 10368 10373 10377
10729 10720 10711 10699 10685 10674 10663 10649 10636 10624 10612 10599 10585 10572 10559 10545 10533 10520 10507 10495 10481 10469 10458 10445 10434 10422 10410 10400 10386 10377 10370 10364 10356 10351 10346 10341 10338 10338 10336 10332 10339 10342 10348
10716 10706 10694 10681 10668 10655 10642 10629 10617 10606 10595 10581 10566 10551 10533 10518 10505 10493 10482 10471 10456 10443 10430 10416 10402 10391 10378 10365 10354 10345 10339 10332 10324 10320 10314 10311 10308 10306 10306 10305 10307 10314 10319
10698 10687 10675 10661 10647 10636 10625 10613 10601 10588 10576 10561 10547 10534 10519 10501 10482 10467 10456 10444 10427 10413 10399 10386 10372 10358 10350 10336 10324 10313 10308 10301 10294 10290 10285 10283 10283 10281 10277 10280 10278 10285 10292
10680 10669 10658 10646 10634 10621 10608 10595 10584 10571 10557 10543 10531 10516 10502 10485 10466 10447 10431 10418 10404 10389 10374 10358 10344 10330 10319 10311 10300 10285 10278 10273 10267 10262 10258 10256 10256 10256 10253 10252 10255 10256 10265
10668 10655 10643 10632 10620 10607 10594 10582 10569 10555 10541 10524 10509 10493 10480 10465 10447 10429 10410 10392 10374 10357 10341 10327 10314 10301 10287 10280 10273 10260 10243 10245 10240 10235 10232 10229 10229 10226 10227 10230 10230 10232 10237
10655 10642 10630 10616 10604 10592 10581 10568 10553 10538 10521 10503 10485 10469 10452 10435 10417 10399 10380 10361 10343 10326 10310 10295 10282 10270 10257 10246 10241 10235 10225 10213 10203 10208 10206 10202 10203 10201 10201 10205 10207 10208 10214
10641 10629 10616 10604 10593 10581 10567 10552 10536 10519 10500 10482 10463 10444 10426 10409 10390 10370 10351 10333 10316 10299 10284 10269 10256 10244 10232 10223 10212 10207 10200 10196 10188 10169 10176 10180 10179 10178 10178 10180 10184 10188 10193
10630 10619 10606 10596 10583 10568 10552 10535 10518 10499 10480 10459 10440 10421 10401 10381 10362 10342 10324 10306 10290 10274 10257 10245 10231 10218 10207 10197 10190 10181 10175 10172 10171 10162 10145 10148 10155 10158 10157 10158 10160 10166 10173
10622 10611 10598 10584 10570 10554 10538 10520 10499 10479 10461 10441 10420 10399 10378 10356 10336 10317 10299 10282 10265 10248 10232 10218 10206 10194 10183 10174 10166 10159 10152 10146 10145 10146 10137 10125 10126 10135 10138 10137 10140 10146 10153